Weather History for Colby, KS

Change the Weather History Date:

Thursday, August 21, 2014

  Actual Average (KGLD) Record (KGLD)
Temperature  
Mean Temperature 78 °F 73 °F  
Max Temperature 91 °F 87 °F 102 °F (1943)
Min Temperature 64 °F 60 °F 46 °F (1964)
Degree Days  
Heating Degree Days 0 0  
Month to date heating degree days 0  
Since 1 June heating degree days 41  
Since 1 July heating degree days 4  
Cooling Degree Days 12 8  
Month to date cooling degree days 203  
Year to date cooling degree days 757  
Since 1 June cooling degree days 716  
Growing Degree Days 28 (Base 50)    
Moisture  
Dew Point 63 °F    
Average Humidity 65    
Maximum Humidity 100    
Minimum Humidity 36    
Precipitation  
Precipitation 0.00 in 0.07 in 0.97 in (1945)
Month to date precipitation 2.02  
Year to date precipitation 15.22  
Snow  
Snow 0.00 in 0.00 in - ()
Month to date snowfall 0.0  
Since 1 June snowfall 0.0  
Since 1 July snowfall 0.0  
Snow Depth -    
Sea Level Pressure  
Sea Level Pressure 29.92 in    
Wind  
Wind Speed 5 mph (NNW)    
Max Wind Speed 10 mph    
Max Gust Speed -    
Visibility 10 miles    
Events      
T = Trace of Precipitation, MM = Missing Value Source: NWS Daily Summary

Daily Weather History Graph

Daily Weather History Graph

Search for Another Location

Airport:

Trip Planner

Search our weather history database for the weather conditions in past years. The results will help you decide how hot, cold, wet, or windy it might be!

Date:

Astronomy

Aug. 21, 2014 Rise Set
Actual Time 7:02 AM CDT 8:31 PM CDT
Civil Twilight 6:34 AM CDT 8:59 PM CDT
Nautical Twilight 6:00 AM CDT 9:33 PM CDT
Astronomical Twilight 5:24 AM CDT 10:09 PM CDT
Moon 3:34 AM CDT (8/21) 6:01 PM CDT (8/21)
Length of Visible Light 14h 25m
Length of Day
13h 28m
Waning Crescent, 13% of the Moon is Illuminated
Aug 21
Waning Crescent
Aug 25
New
Sep 2
First Quarter
Sep 8
Full
Sep 15
Last Quarter

Hourly Weather History & Observations

Time (CDT) Temp. Heat Index Dew Point Humidity Pressure Visibility Wind Dir Wind Speed Gust Speed Precip Events Conditions
12:15 AM 75.2 °F - 64.4 °F 69% 29.83 in 10.0 mi Calm Calm - N/A   Clear
12:35 AM 73.4 °F - 64.4 °F 73% 29.83 in 10.0 mi SSW 4.6 mph - N/A   Clear
12:55 AM 71.6 °F - 64.4 °F 78% 29.82 in 10.0 mi South 5.8 mph - N/A   Clear
1:15 AM 71.6 °F - 64.4 °F 78% 29.84 in 10.0 mi SW 5.8 mph - N/A   Clear
1:35 AM 71.6 °F - 64.4 °F 78% 29.84 in 10.0 mi SSW 5.8 mph - N/A   Clear
1:55 AM 71.6 °F - 64.4 °F 78% 29.84 in 10.0 mi SSW 6.9 mph - N/A   Clear
2:15 AM 69.8 °F - 64.4 °F 83% 29.84 in 10.0 mi SSW 6.9 mph - N/A   Clear
2:35 AM 71.6 °F - 64.4 °F 78% 29.84 in 10.0 mi South 6.9 mph - N/A   Clear
2:55 AM 71.6 °F - 64.4 °F 78% 29.84 in 10.0 mi SSW 8.1 mph - N/A   Clear
3:15 AM 69.8 °F - 64.4 °F 83% 29.84 in 10.0 mi SSW 6.9 mph - N/A   Clear
3:35 AM 68.0 °F - 64.4 °F 88% 29.84 in 10.0 mi WSW 8.1 mph - N/A   Clear
3:55 AM 64.4 °F - 64.4 °F 100% 29.85 in 10.0 mi SW 6.9 mph - N/A   Clear
4:15 AM 64.4 °F - 64.4 °F 100% 29.85 in 10.0 mi WSW 5.8 mph - N/A   Clear
4:35 AM 64.4 °F - 64.4 °F 100% 29.85 in 10.0 mi WNW 9.2 mph - N/A   Clear
4:55 AM 64.4 °F - 64.4 °F 100% 29.86 in 10.0 mi WNW 10.4 mph - N/A   Clear
5:15 AM 66.2 °F - 64.4 °F 94% 29.86 in 10.0 mi WNW 10.4 mph - N/A   Scattered Clouds
5:35 AM 64.4 °F - 64.4 °F 100% 29.87 in 10.0 mi NW 5.8 mph - N/A   Scattered Clouds
5:55 AM 64.4 °F - 64.4 °F 100% 29.88 in 10.0 mi NW 8.1 mph - N/A   Clear
6:15 AM 64.4 °F - 64.4 °F 100% 29.88 in 10.0 mi NW 8.1 mph - N/A   Clear
6:35 AM 64.4 °F - 64.4 °F 100% 29.89 in 10.0 mi NNW 5.8 mph - N/A   Clear
6:55 AM 64.4 °F - 64.4 °F 100% 29.90 in 10.0 mi Calm Calm - N/A   Clear
7:15 AM 64.4 °F - 64.4 °F 100% 29.90 in 10.0 mi NW 3.5 mph - N/A   Clear
7:35 AM 64.4 °F - 64.4 °F 100% 29.90 in 10.0 mi NNW 3.5 mph - N/A   Clear
7:55 AM 68.0 °F - 64.4 °F 88% 29.89 in 10.0 mi North 6.9 mph - N/A   Clear
8:15 AM 68.0 °F - 62.6 °F 83% 29.90 in 10.0 mi North 8.1 mph - N/A   Clear
8:55 AM 69.8 °F - 64.4 °F 83% 29.92 in 10.0 mi Calm Calm - N/A   Clear
9:15 AM 71.6 °F - 64.4 °F 78% 29.95 in 10.0 mi NNW 3.5 mph - N/A   Clear
9:35 AM 75.2 °F - 64.4 °F 69% 29.96 in 10.0 mi North 4.6 mph - N/A   Clear
9:55 AM 77.0 °F - 64.4 °F 65% 29.96 in 10.0 mi North 10.4 mph - N/A   Clear
10:15 AM 77.0 °F - 64.4 °F 65% 29.97 in 10.0 mi North 9.2 mph - N/A   Clear
10:35 AM 78.8 °F - 64.4 °F 61% 29.96 in 10.0 mi North 8.1 mph - N/A   Clear
10:55 AM 78.8 °F - 64.4 °F 61% 29.96 in 10.0 mi NNE 8.1 mph - N/A   Clear
11:15 AM 80.6 °F 82.3 °F 64.4 °F 58% 29.97 in 10.0 mi NNW 6.9 mph - N/A   Clear
11:35 AM 80.6 °F 82.3 °F 64.4 °F 58% 29.96 in 10.0 mi North 6.9 mph - N/A   Clear
12:15 PM 82.4 °F 83.9 °F 64.4 °F 54% 29.96 in 10.0 mi North 6.9 mph - N/A   Clear
12:35 PM 84.2 °F 85.0 °F 62.6 °F 48% 29.96 in 10.0 mi NNE 8.1 mph - N/A   Clear
12:55 PM 86.0 °F 86.6 °F 62.6 °F 45% 29.96 in 10.0 mi North 9.2 mph - N/A   Clear
1:15 PM 87.8 °F 87.6 °F 60.8 °F 40% 29.96 in 10.0 mi North 6.9 mph - N/A   Clear
1:35 PM 87.8 °F 87.6 °F 60.8 °F 40% 29.95 in 10.0 mi NNW 10.4 mph - N/A   Clear
1:55 PM 87.8 °F 87.6 °F 60.8 °F 40% 29.95 in 10.0 mi North 8.1 mph - N/A   Clear
2:15 PM 89.6 °F 89.5 °F 60.8 °F 38% 29.95 in 10.0 mi North 5.8 mph - N/A   Clear
2:35 PM 89.6 °F 90.1 °F 62.6 °F 40% 29.95 in 10.0 mi North 6.9 mph - N/A   Clear
2:55 PM 89.6 °F 88.9 °F 59.0 °F 36% 29.95 in 10.0 mi Calm Calm - N/A   Clear
3:15 PM 91.4 °F 91.4 °F 60.8 °F 36% 29.94 in 10.0 mi North 3.5 mph - N/A   Clear
3:35 PM 91.4 °F 91.4 °F 60.8 °F 36% 29.93 in 10.0 mi NNW 5.8 mph - N/A   Clear
3:55 PM 91.4 °F 91.4 °F 60.8 °F 36% 29.93 in 10.0 mi NW 6.9 mph - N/A   Clear
4:15 PM 91.4 °F 92.1 °F 62.6 °F 38% 29.94 in 10.0 mi North 6.9 mph - N/A   Clear
4:35 PM 91.4 °F 92.1 °F 62.6 °F 38% 29.94 in 10.0 mi North 9.2 mph - N/A   Clear
4:55 PM 91.4 °F 91.4 °F 60.8 °F 36% 29.94 in 10.0 mi NNE 5.8 mph - N/A   Clear
5:15 PM 91.4 °F 91.4 °F 60.8 °F 36% 29.94 in 10.0 mi NNW 5.8 mph - N/A   Clear
5:35 PM 91.4 °F 91.4 °F 60.8 °F 36% 29.94 in 10.0 mi North 6.9 mph - N/A   Clear
5:55 PM 89.6 °F 89.5 °F 60.8 °F 38% 29.94 in 10.0 mi North 5.8 mph - N/A   Clear
6:15 PM 89.6 °F 88.9 °F 59.0 °F 36% 29.94 in 10.0 mi NE 5.8 mph - N/A   Clear
6:35 PM 89.6 °F 88.9 °F 59.0 °F 36% 29.94 in 10.0 mi Calm Calm - N/A   Clear
6:55 PM 89.6 °F 89.5 °F 60.8 °F 38% 29.94 in 10.0 mi NNE 4.6 mph - N/A   Clear
7:15 PM 87.8 °F 88.5 °F 62.6 °F 43% 29.94 in 10.0 mi NNE 3.5 mph - N/A   Clear
7:35 PM 87.8 °F 87.6 °F 60.8 °F 40% 29.95 in 10.0 mi Calm Calm - N/A   Clear
7:55 PM 86.0 °F 89.4 °F 68.0 °F 55% 29.95 in 10.0 mi Calm Calm - N/A   Clear
8:15 PM 82.4 °F 85.4 °F 68.0 °F 62% 29.95 in 10.0 mi Calm Calm - N/A   Clear
8:35 PM 80.6 °F 82.3 °F 64.4 °F 58% 29.95 in 10.0 mi Calm Calm - N/A   Clear
8:55 PM 82.4 °F 82.5 °F 59.0 °F 45% 29.95 in 10.0 mi Calm Calm - N/A   Clear
9:15 PM 78.8 °F - 62.6 °F 57% 29.96 in 10.0 mi NNE 6.9 mph - N/A   Clear
9:30 PM 75.2 °F - 62.6 °F 65% 29.97 in 10.0 mi NNE 6.9 mph - N/A   Clear
9:55 PM 73.4 °F - 62.6 °F 69% 29.97 in 10.0 mi NNE 6.9 mph - N/A   Clear
10:15 PM 73.4 °F - 62.6 °F 69% 29.97 in 10.0 mi NE 6.9 mph - N/A   Clear
10:35 PM 73.4 °F - 60.8 °F 65% 29.97 in 10.0 mi NNE 6.9 mph - N/A   Clear
11:15 PM 71.6 °F - 62.6 °F 73% 29.98 in 10.0 mi ENE 8.1 mph - N/A   Clear
11:35 PM 71.6 °F - 62.6 °F 73% 29.98 in 10.0 mi NNE 6.9 mph - N/A   Clear
11:55 PM 69.8 °F - 64.4 °F 83% 29.98 in 10.0 mi NNE 6.9 mph - N/A   Clear